Location: São Paulo
(23.5507°S, 46.6334°W)
Time: 08:49:17
(UTC-03:00)

Hubble Space Telescope - Pass Details

Date: 27 July 2021
Orbit: 535 x 539 km, 28.5° (Epoch: 15 September)

Event Time Altitude Azimuth Distance (km) Brightness Sun altitude
Exits shadow 05:05:30 38° 344° (NNW) 828 1.6 -22.5°
Maximum altitude 05:06:27 46° 23° (NNE) 728 1.6 -22.3°
Drops below altitude 10° 05:10:26 10° 97° (E) 1,794 4.4 -21.4°
Sets 05:12:46 0° 102° (ESE) 2,688 5.5 -20.9°
